Home > Weather > Carson City > Past weeks

Flag for U.S.A. Weather for the Past 2 Weeks in Carson City, Nevada, U.S.A.

Now
47 °F

Clear.


Feels Like: 43 °F
Forecast: 21 / 53 °F
Wind: 7 mph from Southeast

Location: Reno Tahoe International Airport

Current Time: Feb 8, 2016 at 7:46:14 PM

Latest Report: Feb 8, 2016 at 6:55 PM


Visibility: 10 mi

Pressure: 30.52 "Hg (25.67 "Hg at 1425m altitude)

Humidity: 54%

Dew point: 31 °F

Location of Carson CityLocation

Historic Weather in Carson City — Graph

°F

Carson City Temperature Yesterday

Maximum temperature yesterday: 55 °F (at 1:55 PM)
Minimum temperature yesterday: 27 °F (at 6:55 AM)
Average temperature yesterday: 40 °F

High & Low Weather Summary for the Past Weeks

 TemperatureHumidityPressure
High59 °F (Jan 29, 10:55 AM)92% (Jan 30, 3:55 AM)30.62 "Hg (Jan 30, 3:55 AM)
Low15 °F (Feb 2, 4:55 AM)33% (Jan 28, 2:55 PM)29.65 "Hg (Jan 31, 2:55 PM)
Average36 °F68%30.27 "Hg
* Reported Jan 24 5:55 PM — Feb 8 5:55 PM, Carson City, Weather by CustomWeather, © 2016

Note: Actual official high and low records may vary slightly from our data, if they occured in-between our weather recording intervals... More about our weather records

Advertising

Carson City Weather History for the Previous 24 Hours

 ConditionsComfort  
Time TempWeatherWind HumidityBarometerVisibility
5:55 PM
Mon, Feb 8
48 °FClear.7 mph48%30.52 "Hg10 mi
4:55 PM53 °FSunny.10 mph37%30.50 "Hg10 mi
3:55 PM55 °FSunny.13 mph40%30.49 "Hg10 mi
2:55 PM56 °FSunny.13 mph40%30.48 "Hg10 mi
1:55 PM56 °FSunny.8 mph39%30.49 "Hg10 mi
12:55 PM54 °FSunny.5 mph45%30.51 "Hg10 mi
11:55 AM50 °FSunny.No wind50%30.56 "Hg10 mi
10:55 AM47 °FSunny.3 mph56%30.59 "Hg10 mi
9:55 AM43 °FPassing clouds.No wind62%30.60 "Hg10 mi
8:55 AM36 °FSunny.No wind75%30.62 "Hg10 mi
7:55 AM32 °FPassing clouds.No wind82%30.61 "Hg10 mi
6:55 AM28 °FClear.5 mph85%30.62 "Hg10 mi
5:55 AM28 °FClear.3 mph85%30.60 "Hg10 mi
4:55 AM31 °FClear.No wind82%30.58 "Hg10 mi
3:55 AM31 °FClear.No wind82%30.57 "Hg10 mi
2:55 AM32 °FClear.No wind75%30.56 "Hg10 mi
1:55 AM32 °FClear.No wind79%30.58 "Hg10 mi
12:55 AM33 °FClear.No wind78%30.59 "Hg10 mi
11:55 PM
Sun, Feb 7
34 °FClear.No wind76%30.62 "Hg10 mi
10:55 PM37 °FClear.No wind70%30.61 "Hg10 mi
9:55 PM40 °FClear.No wind65%30.60 "Hg10 mi
8:55 PM41 °FClear.No wind62%30.61 "Hg10 mi
7:55 PM45 °FClear.6 mph56%30.58 "Hg10 mi
Weather by CustomWeather, © 2016

See weather overviewHow to use our weather pages